KLM55TR EDDB-EKCH

Flight info

Callsign KLM55TR
Flight time 0h 46m
Altitude 36000
Route GERGA4N/24L GERGA M725 RENKI Y89 USEDU DCT BINZE Z14 BANKU DCT KOSEB T298 MONAK
Aircraft B738/M-SDE2E3FGHIRWXY/LB1

Departure

Time 2026-05-04 17:53
Airport Berlin Brandenburg Airport (EDDB)

Arrival

Time 2026-05-04 18:39
Airport Copenhagen Kastrup Airport (EKCH)
Time Latitude Longitude Altitude Speed Heading
2026-05-04 17:33 52.36429 13.50566 157 ft 0 kts 74°
2026-05-04 17:43 52.36428 13.50560 158 ft 2 kts 74°
2026-05-04 17:43 52.36424 13.50534 158 ft 2 kts 74°
2026-05-04 17:43 52.36419 13.50508 158 ft 2 kts 75°
2026-05-04 17:44 52.36415 13.50482 158 ft 2 kts 76°
2026-05-04 17:44 52.36412 13.50456 158 ft 2 kts 81°
2026-05-04 17:44 52.36411 13.50429 158 ft 2 kts 126°
2026-05-04 17:44 52.36418 13.50421 158 ft 0 kts 159°
2026-05-04 17:46 52.36384 13.50441 157 ft 17 kts 161°
2026-05-04 17:47 52.36274 13.50508 157 ft 17 kts 158°
2026-05-04 17:47 52.36168 13.50577 157 ft 16 kts 157°
2026-05-04 17:47 52.36067 13.50644 157 ft 15 kts 162°
2026-05-04 17:47 52.35978 13.50700 157 ft 0 kts 160°
2026-05-04 17:48 52.35957 13.50712 157 ft 10 kts 160°
2026-05-04 17:48 52.35857 13.50773 157 ft 16 kts 159°
2026-05-04 17:49 52.35754 13.50838 157 ft 16 kts 165°
2026-05-04 17:49 52.35656 13.50790 157 ft 15 kts 219°
2026-05-04 17:49 52.35597 13.50709 157 ft 8 kts 219°
2026-05-04 17:49 52.35595 13.50706 157 ft 0 kts 219°
2026-05-04 17:51 52.35594 13.50706 157 ft 0 kts 219°
2026-05-04 17:52 52.35527 13.50616 156 ft 18 kts 220°
2026-05-04 17:52 52.35430 13.50485 155 ft 18 kts 224°
2026-05-04 17:52 52.35319 13.50113 153 ft 68 kts 249°
2026-05-04 17:52 52.35057 13.49006 152 ft 138 kts 249°
2026-05-04 17:53 52.34659 13.47342 520 ft 163 kts 250°
2026-05-04 17:53 52.34194 13.45570 1204 ft 177 kts 245°
2026-05-04 17:53 52.33534 13.43825 2045 ft 179 kts 234°
2026-05-04 17:53 52.32683 13.42274 2716 ft 192 kts 223°
2026-05-04 17:54 52.31699 13.40692 3149 ft 208 kts 227°
2026-05-04 17:54 52.30734 13.38846 3571 ft 216 kts 232°
2026-05-04 17:54 52.29773 13.36981 4228 ft 214 kts 230°
2026-05-04 17:54 52.28752 13.35128 4643 ft 227 kts 228°
2026-05-04 17:55 52.27845 13.33547 4806 ft 246 kts 228°
2026-05-04 17:55 52.26649 13.31451 5291 ft 258 kts 229°
2026-05-04 17:55 52.25457 13.29315 6253 ft 249 kts 228°
2026-05-04 17:55 52.24273 13.27556 7211 ft 239 kts 207°
2026-05-04 17:56 52.22680 13.27088 7971 ft 243 kts 173°
2026-05-04 17:56 52.21087 13.28093 8602 ft 252 kts 149°
2026-05-04 17:56 52.19822 13.30117 9211 ft 261 kts 124°
2026-05-04 17:56 52.19160 13.32907 9819 ft 270 kts 99°
2026-05-04 17:57 52.19196 13.36053 10082 ft 291 kts 77°
2026-05-04 17:57 52.19745 13.39327 10410 ft 306 kts 73°
2026-05-04 17:57 52.20381 13.42680 10968 ft 313 kts 69°
2026-05-04 17:57 52.21571 13.45642 11536 ft 316 kts 38°
2026-05-04 17:58 52.23498 13.47222 12219 ft 311 kts
2026-05-04 17:58 52.25635 13.47384 12881 ft 308 kts 347°
2026-05-04 17:58 52.27743 13.46679 13210 ft 322 kts 343°
2026-05-04 17:58 52.29965 13.45769 13610 ft 333 kts 342°
2026-05-04 17:59 52.32218 13.44807 14221 ft 336 kts 342°
2026-05-04 17:59 52.34508 13.43819 14647 ft 347 kts 342°
2026-05-04 17:59 52.39413 13.41723 15097 ft 378 kts 342°
2026-05-04 18:00 52.42010 13.40636 15348 ft 391 kts 342°
2026-05-04 18:00 52.44669 13.39538 15809 ft 397 kts 342°
2026-05-04 18:00 52.47354 13.38439 16404 ft 399 kts 343°
2026-05-04 18:00 52.50055 13.37336 16991 ft 401 kts 342°
2026-05-04 18:01 52.52745 13.36239 17541 ft 405 kts 342°
2026-05-04 18:01 52.55494 13.35117 18064 ft 409 kts 342°
2026-05-04 18:01 52.58268 13.33982 18539 ft 412 kts 342°
2026-05-04 18:02 52.63867 13.31689 19534 ft 416 kts 342°
2026-05-04 18:02 52.66685 13.30532 20016 ft 419 kts 342°
2026-05-04 18:02 52.69523 13.29365 20482 ft 421 kts 342°
2026-05-04 18:02 52.72380 13.28188 20943 ft 424 kts 342°
2026-05-04 18:03 52.75249 13.27004 21389 ft 426 kts 342°
2026-05-04 18:03 52.78135 13.25811 21832 ft 429 kts 341°
2026-05-04 18:03 52.81041 13.24609 22273 ft 431 kts 341°
2026-05-04 18:03 52.83923 13.23415 22696 ft 434 kts 341°
2026-05-04 18:04 52.86892 13.22183 23124 ft 436 kts 341°
2026-05-04 18:04 52.89850 13.20954 23501 ft 440 kts 341°
2026-05-04 18:04 52.95776 13.18486 24195 ft 444 kts 341°
2026-05-04 18:05 52.98774 13.17236 24543 ft 445 kts 341°
2026-05-04 18:05 53.01791 13.15975 24896 ft 447 kts 341°
2026-05-04 18:05 53.04810 13.14713 25277 ft 448 kts 340°
2026-05-04 18:05 53.07838 13.13444 25607 ft 449 kts 340°
2026-05-04 18:06 53.13937 13.10881 26198 ft 454 kts 340°
2026-05-04 18:06 53.17004 13.09589 26507 ft 456 kts 340°
2026-05-04 18:06 53.20084 13.08292 26908 ft 455 kts 340°
2026-05-04 18:07 53.23141 13.07004 27391 ft 452 kts 340°
2026-05-04 18:07 53.26189 13.05718 27843 ft 451 kts 340°
2026-05-04 18:07 53.29186 13.04452 28264 ft 450 kts 339°
2026-05-04 18:07 53.32221 13.03166 28606 ft 451 kts 339°
2026-05-04 18:08 53.35273 13.01867 28790 ft 454 kts 339°
2026-05-04 18:08 53.38346 13.00555 29023 ft 457 kts 339°
2026-05-04 18:08 53.41436 12.99237 29327 ft 458 kts 339°
2026-05-04 18:08 53.44525 12.97921 29764 ft 457 kts 339°
2026-05-04 18:09 53.50676 12.95295 30416 ft 455 kts 338°
2026-05-04 18:09 53.56793 12.92677 31196 ft 450 kts 338°
2026-05-04 18:10 53.59812 12.91383 31603 ft 446 kts 338°
2026-05-04 18:10 53.62817 12.90091 31921 ft 445 kts 338°
2026-05-04 18:10 53.65811 12.88798 32190 ft 445 kts 338°
2026-05-04 18:10 53.68808 12.87501 32478 ft 444 kts 338°
2026-05-04 18:11 53.71793 12.86210 32830 ft 442 kts 338°
2026-05-04 18:11 53.74764 12.84924 33176 ft 439 kts 338°
2026-05-04 18:11 53.77682 12.83659 33481 ft 438 kts 338°
2026-05-04 18:11 53.80635 12.82376 33741 ft 438 kts 338°
2026-05-04 18:12 53.83581 12.81094 34060 ft 436 kts 338°
2026-05-04 18:12 53.86511 12.79819 34304 ft 434 kts 339°
2026-05-04 18:12 53.89446 12.78537 34443 ft 436 kts 339°
2026-05-04 18:12 53.92389 12.77248 34581 ft 437 kts 339°
2026-05-04 18:13 53.95336 12.75958 34754 ft 437 kts 339°
2026-05-04 18:13 53.98280 12.74668 34948 ft 437 kts 339°
2026-05-04 18:13 54.04170 12.72082 35229 ft 438 kts 339°
2026-05-04 18:14 54.07120 12.70784 35363 ft 438 kts 339°
2026-05-04 18:14 54.10064 12.69487 35499 ft 438 kts 339°
2026-05-04 18:14 54.13022 12.68182 35625 ft 438 kts 339°
2026-05-04 18:15 54.18879 12.65591 35870 ft 438 kts 339°
2026-05-04 18:15 54.24779 12.62974 36064 ft 438 kts 340°
2026-05-04 18:16 54.30734 12.60319 35927 ft 448 kts 340°
2026-05-04 18:16 54.33783 12.58955 35682 ft 456 kts 340°
2026-05-04 18:16 54.36876 12.57570 35384 ft 459 kts 339°
2026-05-04 18:17 54.42980 12.54862 34462 ft 449 kts 340°
2026-05-04 18:17 54.46034 12.53729 34046 ft 447 kts 341°
2026-05-04 18:17 54.51939 12.51136 32924 ft 427 kts 336°
2026-05-04 18:18 54.54770 12.49753 32309 ft 421 kts 336°
2026-05-04 18:18 54.57581 12.48392 31665 ft 418 kts 336°
2026-05-04 18:18 54.60336 12.47087 31036 ft 414 kts 335°
2026-05-04 18:18 54.63115 12.45797 30459 ft 414 kts 335°
2026-05-04 18:19 54.68657 12.42967 28997 ft 410 kts 324°
2026-05-04 18:19 54.71088 12.40473 28277 ft 405 kts 317°
2026-05-04 18:19 54.73383 12.37644 27527 ft 406 kts 316°
2026-05-04 18:20 54.75643 12.34702 26796 ft 407 kts 315°
2026-05-04 18:20 54.77885 12.31694 26084 ft 408 kts 315°
2026-05-04 18:20 54.80129 12.28623 25393 ft 413 kts 315°
2026-05-04 18:20 54.82378 12.25491 24659 ft 415 kts 315°
2026-05-04 18:21 54.84588 12.22363 23967 ft 415 kts 315°
2026-05-04 18:21 54.86810 12.19168 23219 ft 415 kts 315°
2026-05-04 18:21 54.89026 12.15941 22405 ft 415 kts 315°
2026-05-04 18:21 54.91316 12.12860 21586 ft 421 kts 325°
2026-05-04 18:22 54.94109 12.11152 20826 ft 434 kts 347°
2026-05-04 18:22 54.97138 12.11060 20092 ft 435 kts
2026-05-04 18:22 55.00086 12.12144 19338 ft 433 kts 15°
2026-05-04 18:22 55.02821 12.14310 18613 ft 430 kts 27°
2026-05-04 18:23 55.05211 12.17412 17839 ft 428 kts 42°
2026-05-04 18:23 55.07082 12.21436 17058 ft 424 kts 53°
2026-05-04 18:23 55.08694 12.25711 16282 ft 418 kts 56°
2026-05-04 18:23 55.10222 12.29931 15537 ft 413 kts 56°
2026-05-04 18:24 55.11747 12.34144 14794 ft 408 kts 56°
2026-05-04 18:24 55.13271 12.38305 14047 ft 403 kts 55°
2026-05-04 18:24 55.14786 12.42393 13300 ft 399 kts 55°
2026-05-04 18:24 55.16295 12.46438 12531 ft 394 kts 54°
2026-05-04 18:25 55.17785 12.50421 11768 ft 389 kts 54°
2026-05-04 18:25 55.19261 12.54371 11017 ft 385 kts 55°
2026-05-04 18:25 55.20714 12.58268 10347 ft 379 kts 55°
2026-05-04 18:25 55.22124 12.62007 9886 ft 367 kts 51°
2026-05-04 18:26 55.23928 12.64966 9451 ft 347 kts 28°
2026-05-04 18:26 55.26052 12.66731 9066 ft 330 kts 15°
2026-05-04 18:26 55.28201 12.67926 8684 ft 319 kts 13°
2026-05-04 18:26 55.30296 12.69046 8290 ft 311 kts 13°
2026-05-04 18:27 55.32336 12.70168 7899 ft 302 kts 13°
2026-05-04 18:27 55.34280 12.71266 7489 ft 284 kts 14°
2026-05-04 18:27 55.36111 12.72310 7107 ft 269 kts 13°
2026-05-04 18:27 55.37846 12.73301 6863 ft 257 kts 13°
2026-05-04 18:28 55.39529 12.74261 6614 ft 252 kts 13°
2026-05-04 18:28 55.41202 12.75215 6382 ft 253 kts 13°
2026-05-04 18:28 55.42877 12.76172 6128 ft 253 kts 14°
2026-05-04 18:28 55.44554 12.77134 5869 ft 253 kts 14°
2026-05-04 18:29 55.46207 12.78082 5620 ft 253 kts 14°
2026-05-04 18:29 55.47876 12.79041 5369 ft 251 kts 14°
2026-05-04 18:29 55.49513 12.79985 5103 ft 243 kts 14°
2026-05-04 18:29 55.51100 12.80900 4837 ft 237 kts 14°
2026-05-04 18:30 55.54187 12.82680 4309 ft 230 kts 15°
2026-05-04 18:30 55.55705 12.83558 4064 ft 229 kts 15°
2026-05-04 18:30 55.57192 12.84609 4038 ft 232 kts 20°
2026-05-04 18:31 55.58667 12.85730 4008 ft 235 kts 20°
2026-05-04 18:31 55.60170 12.86873 4010 ft 235 kts 20°
2026-05-04 18:31 55.61669 12.88017 3996 ft 235 kts 20°
2026-05-04 18:31 55.63165 12.89159 4011 ft 234 kts 20°
2026-05-04 18:32 55.64653 12.90311 3997 ft 233 kts 20°
2026-05-04 18:32 55.66131 12.91469 3997 ft 232 kts 20°
2026-05-04 18:32 55.67603 12.92626 3996 ft 231 kts 20°
2026-05-04 18:32 55.69074 12.93782 3994 ft 231 kts 20°
2026-05-04 18:33 55.70542 12.94940 4002 ft 231 kts 20°
2026-05-04 18:33 55.71999 12.96091 3933 ft 225 kts 20°
2026-05-04 18:33 55.73404 12.97141 3701 ft 212 kts 10°
2026-05-04 18:33 55.74783 12.97094 3499 ft 192 kts 334°
2026-05-04 18:34 55.75767 12.95618 3332 ft 189 kts 300°
2026-05-04 18:34 55.76228 12.93458 3145 ft 195 kts 274°
2026-05-04 18:34 55.76065 12.91039 3077 ft 201 kts 261°
2026-05-04 18:34 55.75776 12.88576 3011 ft 202 kts 258°
2026-05-04 18:35 55.75126 12.86416 2992 ft 201 kts 227°
2026-05-04 18:35 55.74105 12.84792 2974 ft 192 kts 227°
2026-05-04 18:35 55.73147 12.83220 2794 ft 182 kts 226°
2026-05-04 18:35 55.72228 12.81769 2557 ft 171 kts 226°
2026-05-04 18:36 55.71646 12.80864 2419 ft 166 kts 225°
2026-05-04 18:36 55.70501 12.79088 2157 ft 166 kts 226°
2026-05-04 18:36 55.69916 12.78183 1977 ft 164 kts 225°
2026-05-04 18:36 55.69069 12.76873 1755 ft 159 kts 225°
2026-05-04 18:37 55.67974 12.75178 1469 ft 157 kts 225°
2026-05-04 18:37 55.67416 12.74313 1331 ft 159 kts 225°
2026-05-04 18:37 55.66587 12.73028 1100 ft 158 kts 224°
2026-05-04 18:37 55.65764 12.71755 930 ft 154 kts 224°
2026-05-04 18:38 55.64964 12.70514 678 ft 151 kts 223°
2026-05-04 18:38 55.64177 12.69295 478 ft 154 kts 224°
2026-05-04 18:38 55.63363 12.68033 277 ft 156 kts 223°
2026-05-04 18:38 55.62547 12.66779 83 ft 153 kts 220°
2026-05-04 18:39 55.61797 12.65601 19 ft 125 kts 221°
2026-05-04 18:39 55.61406 12.64999 23 ft 42 kts 219°
2026-05-04 18:39 55.61283 12.64740 23 ft 26 kts 240°
2026-05-04 18:39 55.61222 12.64450 18 ft 22 kts 251°
2026-05-04 18:40 55.61217 12.64426 19 ft 0 kts 250°
2026-05-04 18:40 55.61209 12.64387 18 ft 12 kts 250°
2026-05-04 18:40 55.61186 12.64224 15 ft 15 kts 274°
2026-05-04 18:41 55.61250 12.64111 15 ft 14 kts 358°
2026-05-04 18:41 55.61337 12.64180 18 ft 14 kts 34°
2026-05-04 18:41 55.61414 12.64268 15 ft 13 kts 34°
2026-05-04 18:41 55.61489 12.64353 17 ft 13 kts 31°
2026-05-04 18:42 55.61572 12.64448 17 ft 17 kts 32°
2026-05-04 18:42 55.61667 12.64556 19 ft 16 kts 33°
2026-05-04 18:42 55.61761 12.64666 19 ft 17 kts 33°
2026-05-04 18:42 55.61865 12.64786 16 ft 18 kts 33°
2026-05-04 18:43 55.61958 12.64890 19 ft 0 kts 32°
2026-05-04 18:43 55.62026 12.64969 21 ft 15 kts 33°
2026-05-04 18:43 55.62104 12.65059 22 ft 2 kts 32°
2026-05-04 18:45 55.62106 12.65061 22 ft 6 kts 32°
2026-05-04 18:45 55.62169 12.65130 23 ft 11 kts 32°
2026-05-04 18:46 55.62241 12.65145 23 ft 11 kts 324°
2026-05-04 18:46 55.62290 12.65040 22 ft 11 kts 303°
2026-05-04 18:46 55.62329 12.64926 23 ft 11 kts 301°
2026-05-04 18:46 55.62371 12.64817 23 ft 11 kts 301°
2026-05-04 18:47 55.62412 12.64712 22 ft 10 kts 307°
2026-05-04 18:47 55.62451 12.64602 23 ft 11 kts 303°
2026-05-04 18:47 55.62495 12.64476 20 ft 12 kts 303°
2026-05-04 18:47 55.62548 12.64337 22 ft 15 kts 303°
2026-05-04 18:48 55.62603 12.64186 22 ft 14 kts 303°
2026-05-04 18:48 55.62659 12.64056 23 ft 12 kts 339°
2026-05-04 18:48 55.62714 12.64088 25 ft 0 kts 32°
2026-05-04 18:48 55.62721 12.64096 27 ft 0 kts 34°